GFSFLT1_sfc_30mbdewp_000.txt.gz
Dewpoint
53 55 58 58 59 60 61 63 64 66 67 67 69 71 71 71 71 68 65 62 62 61 58 59 62 61 60 58 58 59 61 60 61
51 54 57 59 59 60 61 63 64 66 67 68 69 70 71 70 69 67 64 62 61 60 60 59 60 59 59 57 57 60 60 60 60
50 53 57 58 60 61 62 62 64 66 67 68 69 69 69 68 67 65 60 60 60 59 59 58 59 58 58 58 58 59 60 59 59
48 50 55 57 61 62 62 62 63 65 67 68 68 68 67 66 64 61 59 58 60 59 57 57 59 58 58 58 59 59 59 59 59
45 49 54 56 60 62 63 62 63 65 66 67 68 68 65 63 61 59 59 59 60 60 58 58 59 59 59 59 60 60 59 58 60
45 48 53 56 59 61 62 62 63 64 66 67 68 67 64 62 60 60 60 60 60 60 59 58 58 59 60 59 59 57 57 58 58
45 47 52 55 57 58 60 60 62 64 65 66 67 65 63 62 61 60 61 61 61 60 59 58 58 59 58 57 56 56 57 58 58
46 45 48 53 55 56 58 58 60 62 64 66 66 65 63 63 62 61 62 62 61 61 60 60 59 59 58 58 57 57 57 58 58
46 46 46 48 53 55 56 57 59 62 64 65 66 65 64 64 63 63 63 65 64 62 60 60 60 58 58 57 58 58 58 59 59
44 45 48 48 48 51 53 55 58 61 64 66 67 66 65 65 63 63 63 64 63 62 61 60 59 59 58 58 58 58 58 58 60
42 45 47 49 49 50 52 54 57 61 64 66 67 67 66 64 63 62 62 61 61 62 60 59 59 58 58 58 59 58 58 58 60
43 46 49 51 51 51 54 56 58 61 64 66 67 67 66 64 63 62 63 61 61 61 59 59 59 59 59 58 58 58 59 59 59
43 46 48 50 55 56 57 59 62 62 64 66 66 66 65 65 64 62 60 61 61 60 60 60 60 60 60 60 61 60 59 59 58
49 51 53 55 57 58 60 62 64 63 63 64 66 65 65 65 65 63 63 62 61 60 61 61 61 59 57 56 59 62 59 57 56
46 49 52 55 55 58 63 63 63 62 63 64 65 64 64 64 63 63 61 59 59 59 58 56 55 56 53 54 59 58 57 56 56
53 54 57 61 62 62 62 62 63 62 62 63 63 62 62 62 62 61 60 59 58 57 56 55 54 55 55 58 57 54 54 54 53
55 57 57 61 61 61 61 61 61 61 63 63 62 61 61 61 60 59 58 59 58 57 56 55 55 57 59 57 55 52 51 49 48
59 59 61 61 61 61 61 61 61 62 62 61 60 59 59 59 59 60 59 58 57 58 58 57 58 58 57 55 54 51 49 48 47
60 59 61 61 61 62 61 61 61 61 60 60 59 59 58 58 58 58 57 54 52 48 48 49 52 51 54 50 50 46 42 42 41
58 60 61 61 60 61 60 60 60 60 60 59 58 57 55 54 53 55 56 54 52 51 47 44 45 48 47 45 43 42 42 42 42

GFSFLT1_sfc_30mbdewp_003.txt.gz
Dewpoint
51 53 54 56 58 60 61 63 65 66 67 69 70 70 71 72 72 71 71 71 68 67 66 66 63 64 65 66 64 62 63 61 60
51 52 54 55 58 59 61 63 65 66 67 68 69 69 71 72 72 72 71 71 69 67 67 63 63 63 64 63 60 61 63 58 60
49 53 55 55 58 59 61 62 64 66 67 67 68 69 70 71 71 72 72 72 69 65 65 63 63 63 62 61 60 60 63 59 59
47 52 55 56 59 60 61 62 63 65 66 67 67 69 70 70 71 71 72 70 69 65 64 64 63 63 61 61 61 61 62 62 59
46 53 56 57 58 60 60 62 62 63 64 65 67 68 70 70 70 70 69 69 64 64 63 64 63 62 62 62 61 61 62 61 57
49 52 55 57 58 60 61 62 63 63 64 64 65 67 68 69 69 68 69 63 63 63 62 62 61 62 62 62 61 62 63 62 59
49 51 55 57 58 61 63 64 65 65 64 64 65 66 67 68 67 67 65 63 62 63 63 62 62 62 63 62 62 61 60 59 60
49 50 54 56 58 62 64 64 65 65 64 65 66 67 67 67 67 66 65 63 63 61 60 62 62 61 62 63 61 59 60 60 61
49 49 51 55 57 59 61 62 63 64 65 65 67 67 67 67 66 65 65 64 62 61 60 62 63 62 61 61 61 59 58 60 60
50 50 50 52 56 58 59 60 62 62 64 65 66 67 67 66 66 65 65 64 63 63 62 62 61 62 62 62 62 61 59 59 60
49 51 52 53 52 56 58 58 59 61 64 66 67 67 67 67 66 65 65 65 64 63 61 61 63 63 63 62 62 61 59 60 62
46 48 51 54 54 55 58 57 60 62 64 65 67 67 67 67 65 65 65 64 64 63 62 62 63 62 62 62 62 60 60 61 62
48 51 54 56 57 58 59 60 61 62 63 65 66 67 67 67 66 65 64 64 65 64 63 62 62 62 63 62 62 61 59 57 59
54 54 57 58 58 58 61 64 64 64 65 65 67 68 68 67 66 65 65 65 64 63 62 62 62 62 63 62 63 61 56 58 60
54 55 58 59 60 63 64 65 64 65 66 67 68 68 67 67 66 65 64 64 63 63 63 63 62 62 62 60 60 58 59 59 59
58 60 61 61 60 63 64 66 66 65 66 67 67 67 66 66 66 64 64 62 62 61 62 61 60 58 57 58 61 60 56 55 55
58 60 62 63 64 63 64 65 65 65 66 67 66 65 65 66 65 64 63 62 61 60 59 59 58 58 57 60 59 57 55 53 51
61 62 63 63 63 64 64 65 65 65 66 66 65 65 65 65 64 62 62 60 58 59 60 58 59 57 57 58 57 56 54 52 51
63 64 64 64 65 65 64 64 64 65 66 65 65 64 64 63 61 60 58 58 55 47 49 51 54 55 58 54 52 49 46 43 41
56 57 60 64 64 64 64 64 63 64 64 64 63 62 61 60 60 60 59 57 56 55 47 45 46 49 49 49 44 42 41 41 41

GFSFLT1_sfc_30mbdewp_006.txt.gz
Dewpoint
45 49 48 50 53 56 59 60 62 64 66 70 71 71 72 73 72 71 69 68 64 62 60 59 61 68 64 62 62 62 60 58 58
41 47 49 48 52 55 57 60 62 65 67 69 69 70 71 72 73 72 68 67 68 65 64 59 64 66 64 60 62 60 59 57 58
41 46 48 48 51 54 56 59 61 64 66 68 69 69 70 71 71 72 71 70 69 67 66 66 64 64 61 60 61 59 60 56 57
37 43 49 50 50 52 56 57 59 62 65 66 68 68 69 69 69 70 71 71 72 71 70 67 65 64 60 60 60 60 60 59 56
25 40 47 51 52 53 55 57 57 59 61 64 66 67 70 69 69 69 70 72 72 72 71 67 66 64 63 62 59 59 60 59 55
36 45 48 52 53 55 56 57 58 59 61 62 63 66 67 68 68 69 69 71 71 71 68 66 65 64 64 63 63 60 60 61 59
39 49 50 53 53 56 58 59 62 62 60 61 62 63 66 67 68 68 70 70 69 67 65 64 64 62 63 61 62 62 61 60 60
37 49 51 54 55 58 62 62 63 63 63 62 62 63 64 66 69 69 70 70 68 65 63 63 59 60 60 61 63 62 61 59 57
36 48 50 54 57 59 62 62 64 64 65 64 65 65 66 67 69 70 69 69 67 65 63 60 59 59 58 59 61 57 57 58 58
37 46 50 53 56 58 61 63 65 64 65 66 66 67 67 68 70 69 69 68 67 64 62 60 59 60 60 60 62 59 59 59 57
37 46 50 53 54 58 61 61 62 62 64 66 66 68 68 69 69 69 68 68 66 65 61 60 61 63 62 61 60 62 60 60 61
44 49 52 54 55 58 60 58 60 62 63 65 66 67 68 68 68 68 67 67 66 66 63 61 62 63 62 62 62 62 60 60 59
45 50 52 54 54 58 58 58 59 61 62 64 65 67 68 68 68 67 67 67 67 66 65 63 62 62 63 62 64 61 59 60 59
49 52 55 56 56 55 58 58 59 59 61 62 64 66 68 68 68 68 68 68 67 66 65 64 64 63 62 63 63 63 59 59 61
55 55 54 53 56 59 60 61 61 62 63 65 67 68 68 68 68 67 67 67 67 65 65 64 63 64 63 63 63 63 59 58 58
52 51 51 54 58 61 63 64 64 64 69 69 68 68 67 68 68 67 66 66 65 64 64 62 62 63 61 63 62 60 57 57 57
55 56 55 56 57 60 64 66 66 68 67 68 68 68 68 68 67 67 65 65 65 64 62 62 62 61 60 59 61 59 58 57 56
58 58 58 57 58 62 65 66 66 67 67 67 67 67 67 65 65 65 65 62 58 60 59 58 57 59 58 57 59 57 56 54 53
61 61 62 62 63 65 66 66 66 67 67 67 66 64 64 63 63 63 63 61 58 48 51 53 55 55 58 57 55 52 50 47 45
54 57 60 63 63 64 65 65 66 66 67 66 64 62 62 61 60 58 58 59 56 54 49 46 47 48 49 51 49 47 44 41 41

GFSFLT1_sfc_30mbdewp_009.txt.gz
Dewpoint
33 45 47 46 50 54 58 60 63 65 69 73 74 73 73 73 73 69 67 67 65 62 60 60 68 67 65 64 61 62 62 59 59
27 38 45 46 47 51 56 58 63 65 68 72 73 71 74 74 74 73 67 67 70 65 63 60 61 65 65 64 60 62 61 58 59
27 32 43 46 47 50 54 57 61 65 67 71 71 71 73 73 73 74 73 72 70 68 65 65 64 66 65 63 61 63 61 59 59
25 31 41 46 47 49 52 55 58 62 65 68 70 70 70 71 71 72 73 72 71 71 68 69 65 68 66 62 62 63 63 61 58
25 28 38 44 46 49 51 54 55 58 61 63 67 69 71 71 72 72 72 73 72 72 70 70 68 68 66 63 62 61 62 61 59
26 29 34 42 46 48 51 53 55 54 58 58 61 67 68 70 70 71 71 73 72 73 73 71 68 68 67 63 63 63 63 62 62
29 31 43 42 47 49 52 54 57 57 56 55 58 62 63 68 70 71 71 72 73 73 73 72 69 67 67 65 64 64 63 62 62
24 26 43 47 49 54 57 58 60 60 57 58 58 62 63 66 71 71 71 71 73 73 73 72 69 67 66 65 61 61 63 60 59
24 24 30 48 52 53 59 60 63 63 62 61 62 65 65 67 71 72 72 72 73 73 72 71 68 65 63 60 58 56 60 61 58
26 26 28 45 51 54 58 60 63 64 65 64 64 66 68 69 72 72 73 73 73 72 70 69 66 64 60 59 60 60 60 60 58
26 30 30 39 49 55 60 60 61 63 65 67 68 69 69 70 72 73 73 73 72 71 70 68 66 63 60 61 62 61 59 59 59
25 27 30 42 51 56 62 61 64 66 65 67 68 68 69 70 71 71 71 71 70 69 69 68 65 63 62 64 64 61 60 61 60
39 39 33 48 53 57 62 63 63 64 65 66 67 68 68 70 71 70 69 70 70 69 69 67 65 62 64 65 64 62 61 62 63
42 42 49 54 55 61 63 63 62 64 64 64 64 66 67 69 69 70 69 69 70 69 68 67 66 64 65 65 65 64 60 60 63
47 48 53 55 58 61 61 62 64 64 64 66 67 68 68 69 69 68 69 69 69 68 67 66 65 65 65 64 65 64 60 58 58
55 56 56 57 58 60 60 63 64 65 68 68 68 69 69 69 69 69 69 69 68 67 66 65 64 63 63 64 66 65 60 59 58
52 53 55 57 58 61 63 64 64 69 69 69 69 69 69 69 68 68 67 67 66 65 64 63 63 63 64 64 63 62 60 58 58
54 55 57 58 60 62 64 66 67 67 68 69 68 68 68 68 67 66 65 63 62 63 61 60 61 60 62 59 57 60 59 58 58
57 57 58 60 61 63 65 66 67 67 68 67 66 66 66 65 65 65 64 61 56 51 53 53 55 56 57 57 54 50 48 48 48
58 58 58 59 61 63 65 66 67 67 68 68 67 63 62 61 61 60 62 59 59 58 52 49 50 50 52 54 50 47 47 46 45

GFSFLT1_sfc_30mbdewp_015.txt.gz
Dewpoint
48 48 46 47 53 56 59 61 65 69 71 70 72 73 72 70 72 69 69 69 71 70 70 69 70 69 67 64 62 67 66 65 63
47 44 43 47 51 55 59 60 66 67 72 71 72 73 73 72 71 72 71 71 71 70 68 69 69 69 67 66 64 63 66 65 62
43 43 45 47 50 55 59 60 64 66 71 72 72 72 74 74 72 71 71 72 70 70 68 69 69 70 68 68 65 64 66 63 64
43 43 44 48 50 54 59 60 63 66 69 72 72 73 72 74 73 73 72 72 71 69 69 69 69 69 69 67 66 66 66 64 62
39 40 43 47 50 52 59 60 61 65 70 71 72 73 73 73 74 74 73 71 71 72 69 70 70 69 69 68 66 65 66 64 62
38 37 46 48 49 53 59 60 61 64 68 72 72 73 73 73 73 74 73 72 72 72 71 70 70 70 68 68 67 66 66 64 62
32 41 34 47 49 54 56 60 61 62 66 70 72 73 73 73 73 73 73 73 72 72 73 72 69 69 69 68 67 65 66 64 63
33 34 38 44 50 51 56 59 61 62 64 66 71 72 73 72 73 73 73 73 74 72 72 72 72 69 69 69 68 65 65 65 64
29 28 41 49 52 52 54 56 60 61 63 65 67 70 71 71 72 72 73 73 73 74 73 73 72 71 70 69 68 66 65 65 65
32 32 42 46 50 54 54 56 59 61 63 64 66 68 70 70 70 72 72 73 73 74 74 73 74 72 71 69 69 66 64 65 65
25 34 40 46 48 59 57 58 58 60 62 64 64 65 68 69 70 71 72 72 73 72 74 73 74 73 72 70 68 64 63 62 64
19 22 33 30 51 53 62 59 59 59 60 63 63 64 66 68 69 70 72 72 72 73 74 74 74 72 70 67 67 64 61 60 60
31 31 32 27 34 50 57 62 61 60 60 62 61 62 65 67 68 70 72 72 73 74 74 72 72 69 68 66 64 62 61 60 60
49 46 36 34 41 52 57 63 63 61 61 60 64 62 72 69 71 73 73 74 73 72 71 71 69 68 66 64 64 64 61 60 61
45 46 55 42 49 52 62 65 66 66 64 66 68 72 73 75 75 75 74 73 71 70 70 69 67 66 65 65 65 65 63 62 60
47 60 65 68 66 68 69 68 68 69 72 72 72 73 74 73 73 72 71 70 70 69 69 68 67 65 65 65 66 64 63 60 58
63 65 66 67 69 70 71 71 72 72 72 72 72 72 72 71 71 70 70 70 69 68 67 67 66 65 65 65 65 64 62 60 58
65 66 66 68 69 70 71 71 72 72 72 72 71 70 69 69 69 67 62 58 61 64 59 63 64 65 65 64 64 65 63 61 60
60 60 68 70 70 70 71 72 72 71 71 70 69 68 68 67 64 62 60 59 56 50 52 52 57 63 63 57 63 62 59 59 59
57 58 64 68 68 69 69 69 69 70 70 69 68 67 67 66 64 63 61 60 58 56 51 50 52 54 55 56 57 55 55 54 52

GFSFLT1_sfc_30mbdewp_021.txt.gz
Dewpoint
47 49 50 52 53 54 57 59 63 64 65 67 69 69 68 68 67 67 66 66 66 67 70 70 71 70 70 68 64 64 64 62 62
45 47 49 50 52 53 55 57 61 64 65 66 69 69 69 69 68 67 67 67 67 68 69 70 71 71 70 68 64 63 63 62 62
44 47 47 49 50 52 54 56 59 63 64 64 67 69 69 69 69 69 68 68 68 68 69 70 70 70 69 67 65 64 63 63 62
44 45 46 47 49 50 53 55 58 62 64 64 65 68 69 68 69 69 69 68 68 69 70 70 69 70 69 67 65 64 64 64 63
44 46 46 46 47 49 51 55 57 62 64 65 65 67 68 68 69 69 70 69 69 69 69 70 69 69 68 67 65 63 64 64 64
40 45 46 46 46 47 50 54 57 62 64 65 66 67 68 68 68 69 69 70 69 70 70 69 69 69 68 67 66 65 63 64 63
40 46 46 46 46 48 51 54 57 61 64 65 66 67 68 69 69 69 69 69 69 70 71 69 69 69 68 68 67 66 65 63 63
39 45 46 46 46 47 50 53 58 60 63 66 66 67 68 69 69 70 70 70 69 69 70 70 69 68 68 68 67 66 65 65 64
28 36 45 45 45 47 49 52 57 59 63 65 67 67 68 69 70 70 71 71 71 70 70 70 69 69 68 68 68 67 66 65 65
26 36 40 41 43 43 46 50 56 58 62 64 68 68 68 69 69 70 71 71 71 71 70 70 70 69 69 68 68 67 66 65 66
26 33 35 37 38 42 47 52 56 58 61 64 67 68 69 70 70 70 71 72 72 72 71 71 71 70 69 69 69 67 65 65 66
22 24 29 36 41 41 47 51 56 58 60 63 67 68 69 70 71 71 71 71 72 72 72 71 71 71 70 70 70 68 66 64 66
28 28 32 38 42 49 50 53 56 59 60 63 66 68 69 70 71 71 71 71 71 72 72 72 72 71 71 71 70 68 66 65 66
41 39 34 32 44 52 50 54 58 59 60 62 64 67 69 70 71 71 71 72 72 72 72 73 72 72 72 71 69 66 63 65 66
60 63 66 65 45 38 54 55 57 59 60 61 63 65 67 69 70 71 71 72 72 72 72 72 72 71 70 69 67 63 62 65 65
58 60 65 68 68 65 56 49 57 57 59 61 62 64 65 67 70 71 71 72 72 72 72 72 69 69 68 66 66 64 63 64 60
55 54 55 62 64 64 62 64 66 62 58 59 61 63 64 66 69 70 71 72 72 72 72 70 69 68 66 65 65 63 61 61 58
54 54 53 52 59 64 62 57 59 59 63 64 60 62 64 65 68 69 71 65 69 71 68 69 68 67 66 65 63 62 62 61 60
59 60 59 57 54 54 55 56 57 58 59 69 65 63 68 69 70 64 62 61 59 55 60 66 66 66 65 64 64 61 60 59 59
61 62 61 60 58 58 60 60 58 58 58 68 71 70 68 65 64 64 65 65 63 61 61 55 59 64 63 63 61 60 58 57 57

GFSFLT1_sfc_30mbdewp_024.txt.gz
Dewpoint
50 53 56 56 56 57 58 60 62 64 66 66 67 67 67 67 67 67 66 66 67 68 68 69 71 71 70 69 67 66 64 63 62
44 48 52 55 56 56 57 59 61 64 65 66 67 67 67 67 67 67 67 67 67 68 69 70 71 71 70 70 67 66 65 63 62
44 45 48 51 53 55 56 58 60 63 65 66 66 67 67 67 67 68 67 67 67 67 68 69 70 71 71 69 67 66 65 64 63
42 44 46 48 50 53 54 56 59 62 64 65 65 68 68 68 68 68 68 68 67 67 68 69 70 70 70 69 68 66 65 63 63
43 44 46 48 49 50 52 54 56 60 63 64 65 67 68 68 68 68 68 68 68 69 68 69 69 70 70 69 68 66 66 64 63
38 44 46 47 48 49 51 53 55 57 61 63 64 65 68 68 68 68 68 68 68 69 69 69 69 69 69 69 68 66 66 65 64
29 35 41 47 47 48 50 52 55 57 60 62 63 64 66 67 68 68 68 69 69 69 69 69 69 69 69 69 68 67 65 65 65
32 37 44 47 47 47 49 52 55 57 60 62 64 64 65 66 67 68 68 69 69 69 69 69 69 69 69 69 68 67 66 65 65
20 30 39 46 47 48 50 52 56 58 61 63 64 65 65 66 67 68 68 69 69 70 70 70 69 69 69 69 68 67 66 66 65
17 19 23 36 47 48 49 52 56 57 60 63 64 65 66 67 68 68 68 69 69 69 69 70 70 69 69 69 69 67 66 66 66
16 18 24 34 43 47 48 50 51 55 59 63 65 65 66 67 68 69 69 70 69 69 69 69 69 69 69 68 69 67 65 65 67
17 19 25 33 39 44 47 47 50 55 59 63 65 66 66 67 69 69 69 70 70 70 70 70 70 70 69 69 69 67 65 65 66
23 25 27 30 36 41 43 47 52 56 58 62 64 66 67 68 69 69 69 70 70 71 71 70 71 70 70 69 69 67 65 65 67
49 46 41 35 40 44 49 51 55 57 58 61 63 65 68 69 69 70 69 70 71 71 72 71 71 71 71 70 70 69 66 64 67
63 65 66 63 48 49 51 57 57 58 59 61 63 66 67 69 69 70 70 70 71 71 72 71 71 70 70 71 71 70 63 63 67
58 62 65 66 64 63 63 63 61 58 63 61 62 64 67 69 70 71 71 71 71 71 72 71 71 70 70 69 69 63 63 64 66
53 53 55 62 61 59 57 61 63 63 65 67 62 62 65 67 69 70 71 72 71 71 71 71 70 70 70 69 65 64 62 63 62
59 59 57 56 57 58 58 58 57 57 58 67 68 63 63 65 68 69 71 67 69 71 72 71 71 70 69 66 65 65 63 61 60
60 59 59 58 60 59 59 60 60 60 59 61 68 68 63 64 67 69 64 62 60 60 64 66 64 64 63 61 61 59 61 61 59
60 61 62 60 58 61 60 60 60 61 62 60 66 68 67 66 68 65 63 65 64 61 58 60 59 59 59 60 61 62 62 60 58

GFSFLT1_sfc_30mbdewp_027.txt.gz
Dewpoint
52 55 57 58 60 61 63 63 64 65 66 68 69 69 70 70 70 69 69 69 67 67 67 67 69 72 72 72 72 71 70 69 67
48 53 55 56 59 60 62 63 64 65 66 68 68 69 69 70 70 70 68 68 70 68 69 67 70 71 72 72 72 71 70 67 67
41 45 52 54 57 59 60 61 63 64 66 67 68 68 69 69 69 70 69 70 69 69 69 70 69 71 72 72 72 71 70 68 67
37 41 45 49 55 58 60 60 61 63 65 67 68 69 69 69 69 69 70 69 70 70 70 70 70 71 71 71 71 71 70 69 67
38 43 47 48 50 54 56 59 60 62 64 65 67 68 69 69 69 69 69 69 69 70 70 70 71 71 71 71 71 71 70 69 68
36 42 46 49 48 51 55 57 59 60 62 63 64 67 68 69 69 69 69 70 70 70 70 70 70 71 71 71 70 71 70 70 69
33 39 47 50 50 52 54 56 58 60 61 62 63 65 67 68 69 69 69 70 70 70 71 70 71 71 71 71 70 70 70 70 69
34 37 41 45 50 54 56 57 58 59 60 63 63 65 66 68 69 69 70 70 70 70 71 71 71 71 71 71 70 69 70 69 69
28 32 36 44 52 54 55 57 58 59 60 62 64 65 66 67 69 70 70 70 70 71 71 71 71 71 71 71 70 69 68 70 69
30 33 35 39 48 53 55 55 58 58 60 62 64 66 66 67 69 70 70 70 71 70 71 71 71 71 71 71 71 67 67 67 69
30 31 31 37 37 44 54 54 53 58 60 63 65 65 66 67 68 69 70 70 70 71 71 71 71 71 71 71 71 67 66 66 68
32 33 35 36 36 42 52 55 56 59 61 63 65 65 67 68 68 69 70 70 70 70 71 71 71 71 71 71 71 67 65 65 68
30 32 32 37 40 46 49 55 55 58 60 63 64 65 67 68 69 69 69 70 70 71 70 70 70 71 71 71 71 68 65 65 67
44 45 41 41 41 45 52 54 54 58 59 61 63 65 66 68 70 70 70 70 71 71 71 70 70 70 71 71 71 71 65 64 69
64 65 63 46 48 55 61 61 58 59 61 63 64 65 67 70 70 70 70 71 71 72 71 71 71 71 70 71 71 70 65 63 66
65 66 65 63 61 63 64 64 63 63 66 65 65 66 68 70 71 71 71 71 71 71 71 70 70 70 70 70 71 71 67 63 63
61 63 64 62 61 62 63 66 67 67 68 68 65 67 68 69 71 71 72 71 71 70 70 69 67 70 70 70 70 70 62 62 63
57 58 59 60 60 60 61 62 62 61 62 69 70 67 66 68 69 70 71 71 71 71 71 71 70 70 70 70 67 63 62 63 63
59 59 61 60 60 60 61 62 62 62 63 62 64 65 66 65 65 66 69 71 69 62 64 69 69 71 71 69 62 58 59 60 60
60 61 60 60 62 63 64 63 64 65 65 65 64 64 65 66 66 65 69 67 68 66 59 59 66 66 64 61 57 58 59 58 58

GFSFLT1_sfc_30mbdewp_030.txt.gz
Dewpoint
42 49 53 54 57 59 60 60 63 64 66 69 70 70 72 72 73 70 69 69 66 66 64 65 66 70 71 71 71 72 72 71 70
31 44 52 54 56 58 60 62 64 65 67 70 70 69 72 73 73 72 67 69 71 67 68 65 67 68 71 70 71 72 72 70 70
31 42 50 53 55 57 59 61 63 65 67 69 70 69 70 71 71 73 72 71 71 70 68 69 67 69 70 70 71 72 72 70 70
31 39 47 50 52 55 57 60 62 64 66 67 68 69 70 70 70 71 72 71 72 72 71 71 71 70 70 69 71 72 72 71 68
30 35 38 42 47 51 54 57 59 62 63 65 67 68 71 71 71 71 70 72 72 73 72 72 72 72 71 70 70 71 72 71 68
29 32 38 42 43 45 51 55 58 59 62 62 64 68 68 69 70 70 71 72 72 72 73 73 70 72 72 71 70 71 71 71 71
28 34 38 40 41 43 48 53 58 61 59 61 62 64 66 68 70 70 71 72 72 72 73 73 72 72 73 72 71 70 70 70 70
27 30 33 38 46 48 51 53 58 62 60 60 61 64 64 67 70 71 71 72 72 72 73 73 73 73 73 73 70 69 71 71 70
25 25 25 25 38 46 51 55 58 59 63 62 62 64 65 67 70 71 72 72 72 73 73 73 73 72 73 72 70 68 68 71 69
23 27 29 31 35 40 48 53 56 58 62 62 63 65 67 68 70 71 72 72 73 73 73 73 73 73 72 73 72 67 66 68 69
24 24 27 29 29 31 42 49 45 55 58 64 64 67 67 69 70 71 72 73 73 73 73 73 73 73 73 73 73 70 66 67 69
26 29 30 31 31 34 36 41 45 49 57 60 64 67 68 69 70 70 71 72 72 73 72 72 72 72 73 73 73 70 67 66 69
25 29 30 32 32 33 37 46 48 52 56 59 64 66 67 68 70 70 70 72 72 72 72 71 70 71 72 72 73 71 66 66 68
44 42 39 39 41 41 43 51 52 54 56 58 63 64 65 68 70 71 71 72 73 73 72 70 72 71 71 73 73 73 66 65 69
50 46 51 54 51 45 46 54 54 55 61 61 64 65 65 68 70 69 69 72 73 72 72 72 71 71 71 71 73 71 67 65 66
47 51 55 59 47 51 59 62 60 59 62 63 63 65 67 68 70 70 71 72 73 71 72 69 70 68 70 68 71 72 69 64 63
57 60 63 62 59 58 62 66 65 66 67 66 66 66 67 68 69 70 70 69 70 69 68 70 68 68 68 68 70 71 71 67 63
60 62 61 61 62 63 64 65 66 67 69 70 67 67 68 68 68 69 70 71 68 68 69 68 69 68 68 67 68 70 71 67 65
60 61 61 61 61 61 62 62 63 64 65 64 65 65 65 63 63 65 67 67 69 65 66 66 67 68 67 64 67 66 65 63 63
61 61 62 63 63 64 64 64 64 64 65 66 66 64 64 62 63 60 60 63 65 65 68 63 64 65 67 69 64 63 61 60 58

GFSFLT1_sfc_30mbdewp_036.txt.gz
Dewpoint
40 45 47 54 57 58 58 59 62 65 70 71 72 72 73 71 73 71 68 71 65 65 66 66 71 72 73 73 73 74 73 75 74
37 40 44 52 56 58 59 59 61 64 68 71 73 72 73 74 72 73 71 69 70 69 67 67 69 73 73 73 74 74 74 72 74
32 37 42 50 55 58 59 59 61 63 67 70 72 73 73 73 73 73 73 71 71 69 70 68 70 73 73 73 73 74 74 73 73
30 35 41 47 54 57 60 60 61 62 65 69 72 73 73 73 73 73 73 72 72 73 71 73 70 74 73 73 73 73 74 73 72
30 34 43 46 51 55 58 60 61 62 64 66 70 73 73 72 73 74 73 72 72 73 74 72 74 73 72 73 73 73 73 73 71
31 36 37 44 50 53 57 59 61 62 64 64 68 72 72 72 72 73 73 74 73 73 73 74 73 74 74 72 73 73 74 73 73
31 37 36 43 48 52 55 58 61 62 63 64 65 69 71 71 72 72 73 73 74 73 73 73 73 73 73 74 73 73 73 73 74
33 38 41 45 47 54 55 58 61 62 62 64 64 66 69 70 71 72 72 73 73 74 74 73 74 74 73 74 74 73 73 73 73
35 35 36 38 42 43 49 57 62 61 62 63 64 65 66 69 71 72 73 73 73 74 74 74 74 74 74 73 73 73 72 73 73
29 30 30 31 34 36 44 48 60 63 63 64 65 65 67 68 70 71 72 73 73 73 74 74 74 74 74 74 74 72 71 70 72
30 30 31 34 31 34 41 44 46 57 64 65 65 67 67 69 70 71 72 73 73 74 74 74 74 74 75 74 74 73 70 69 71
31 33 36 36 33 34 41 45 48 54 57 66 67 66 68 69 71 71 72 73 74 74 74 74 75 75 75 75 74 73 71 68 70
51 52 54 55 52 51 38 47 38 59 58 62 66 67 67 69 70 71 71 73 74 75 75 75 74 75 75 75 75 74 71 69 71
52 54 55 55 54 53 53 53 53 54 55 59 63 67 68 69 70 70 72 72 74 75 75 75 75 74 75 75 75 75 72 69 72
53 55 56 54 54 53 54 58 56 55 58 58 62 64 69 70 72 71 71 73 74 75 75 75 74 74 74 74 75 74 73 69 68
57 58 58 56 54 51 53 56 58 56 65 68 65 68 70 71 72 73 72 74 74 74 75 74 74 74 73 73 74 74 73 71 68
57 62 60 64 64 63 62 58 63 67 67 66 69 70 71 72 72 73 73 72 74 73 73 74 74 73 73 72 72 73 73 72 67
56 59 65 63 65 67 68 70 71 71 72 71 69 70 72 73 72 73 73 73 71 73 73 72 72 73 72 70 71 70 66 68 72
57 62 65 64 64 65 66 66 67 68 68 71 71 70 70 69 69 70 71 72 73 71 70 67 63 63 67 70 66 64 66 68 68
60 62 64 64 65 65 66 66 65 66 68 68 69 68 69 68 68 67 70 70 71 71 62 59 60 60 58 57 58 58 60 63 65

GFSFLT1_sfc_30mbdewp_042.txt.gz
Dewpoint
54 53 55 55 57 56 58 63 64 64 65 66 69 68 68 68 69 68 67 66 65 65 67 68 70 71 72 72 72 72 71 70 71
52 54 54 54 56 57 57 62 64 65 65 65 68 69 69 70 70 68 68 67 67 65 68 70 70 71 72 72 72 72 72 71 70
49 53 54 54 55 57 57 60 63 65 66 65 66 69 68 68 69 71 70 68 68 69 66 69 70 71 72 72 71 71 72 73 72
49 52 53 53 55 57 57 59 62 65 66 66 67 68 69 69 68 68 72 70 67 67 70 67 69 71 72 72 72 71 71 72 73
49 52 53 54 55 56 57 58 61 64 67 67 67 68 69 70 70 69 68 72 70 68 68 70 67 71 71 72 72 72 71 71 72
34 49 53 53 55 56 57 57 60 64 66 68 68 69 69 70 71 71 69 68 72 70 69 69 70 72 71 72 72 72 72 71 71
33 47 51 54 55 56 57 57 59 62 65 68 69 70 70 70 71 71 71 70 69 72 71 68 70 72 73 72 72 72 72 72 72
36 47 51 55 56 56 57 57 58 61 63 66 69 70 70 70 70 71 72 72 70 70 71 72 69 71 72 73 73 73 72 71 71
42 43 51 55 56 57 58 58 58 60 62 65 68 69 70 70 71 71 71 72 72 71 70 70 72 71 72 72 72 72 72 72 72
40 46 52 55 56 57 58 58 59 59 61 63 66 68 69 70 71 71 72 72 72 72 71 71 69 71 72 71 73 72 71 71 71
52 50 47 48 53 57 60 60 60 60 61 62 63 66 69 69 71 71 72 71 71 71 72 72 72 70 71 72 71 71 70 70 72
58 56 55 54 54 52 55 61 61 61 61 62 63 64 65 69 70 71 71 71 71 71 71 71 72 73 72 71 71 71 70 69 71
59 63 61 56 55 55 54 57 58 62 62 63 63 64 65 66 70 70 71 71 71 71 71 72 72 72 73 73 73 71 70 69 71
57 60 65 65 65 61 57 57 57 62 63 63 64 65 65 67 67 69 70 71 71 71 72 71 71 72 72 73 73 73 70 69 72
56 57 63 66 69 69 67 60 57 55 60 64 66 66 68 68 69 69 70 70 71 71 71 72 72 71 72 73 73 73 71 70 70
57 57 58 63 66 68 69 69 69 69 70 69 68 68 67 69 71 71 71 71 70 71 71 71 72 72 72 72 74 74 72 70 70
53 58 58 61 65 65 67 68 68 68 68 69 71 65 70 69 69 70 71 72 72 72 72 72 72 73 73 73 74 74 74 71 69
40 51 58 61 62 63 65 67 66 65 65 66 67 69 70 70 71 70 71 70 70 73 74 74 73 74 74 74 74 73 72 73 72
41 42 58 59 61 61 63 66 64 64 65 68 68 68 69 72 73 72 72 68 65 57 59 64 70 72 74 63 66 64 64 65 64
46 50 53 60 61 63 65 65 64 65 67 68 67 66 64 68 73 72 73 72 67 65 57 53 54 60 61 60 57 56 56 57 60

GFSFLT1_sfc_30mbdewp_045.txt.gz
Dewpoint
53 56 58 59 59 60 61 61 62 63 64 64 65 66 66 66 66 66 66 66 66 65 66 67 69 71 71 70 71 71 70 70 70
53 53 54 56 58 58 59 61 62 63 64 65 66 66 66 67 67 66 66 67 66 66 66 67 68 69 71 71 71 71 71 70 70
51 53 54 54 57 57 58 61 62 63 64 65 66 66 66 67 67 67 67 67 66 66 66 67 68 69 70 71 72 71 71 70 70
50 53 54 53 55 57 57 61 63 63 64 64 65 67 67 67 67 68 68 68 68 68 66 67 69 69 70 71 71 71 71 71 71
45 51 54 53 54 56 57 57 62 63 63 64 64 67 67 67 68 69 69 69 68 68 69 67 68 70 70 71 71 71 71 70 71
37 48 52 53 54 55 57 57 59 63 64 64 64 65 67 67 67 67 69 71 71 68 67 68 68 69 70 70 71 71 71 71 70
27 44 50 53 54 54 56 57 58 61 64 65 64 65 66 67 68 68 67 68 70 71 69 68 69 69 69 70 71 72 71 71 71
27 40 49 52 53 54 56 57 58 61 63 66 65 66 67 67 69 70 69 69 68 69 71 70 69 69 70 71 71 71 71 72 71
30 46 50 52 53 54 56 57 57 60 63 66 67 67 67 68 69 70 70 70 70 68 70 71 70 69 69 71 71 71 71 71 71
40 44 50 53 53 55 56 57 57 60 63 65 67 68 68 69 69 69 70 71 71 70 69 69 71 71 69 70 70 70 71 71 71
58 52 50 52 54 55 56 57 57 59 62 64 67 68 69 69 70 70 70 71 71 71 71 70 70 70 71 71 71 70 69 70 71
61 62 55 54 56 57 58 58 58 59 62 63 65 67 68 69 70 70 71 70 71 71 72 71 71 70 69 69 71 70 70 69 70
60 65 65 58 56 58 60 60 60 60 61 62 63 65 67 68 70 70 70 71 71 71 71 71 72 72 72 71 70 70 69 68 71
57 61 65 69 65 59 58 60 60 60 61 61 62 63 64 67 69 70 71 71 71 71 71 71 71 71 72 72 72 72 68 67 70
57 58 62 66 68 67 64 60 62 63 63 65 64 64 64 65 67 69 70 71 71 71 71 71 71 71 71 72 72 72 70 68 68
46 57 60 63 65 67 68 68 68 68 69 70 67 67 66 66 67 67 68 70 70 71 71 70 71 71 71 71 72 73 72 70 68
41 48 58 61 62 65 66 66 65 65 65 67 69 69 68 69 69 69 68 69 70 70 70 70 70 70 71 71 72 73 73 70 69
49 50 55 60 61 62 64 65 64 65 67 67 66 68 69 70 70 69 70 68 68 70 71 70 70 71 72 72 72 73 74 74 72
48 53 57 59 60 62 63 65 64 66 67 68 67 66 66 66 70 71 70 66 62 55 58 63 68 71 74 67 68 70 69 69 69
46 47 53 58 59 61 64 64 64 65 67 66 65 64 65 65 65 71 71 67 65 63 57 56 59 64 67 67 64 61 61 61 61

GFSFLT1_sfc_30mbdewp_048.txt.gz
Dewpoint
58 59 60 60 60 60 60 61 62 63 63 63 64 65 66 66 65 64 65 65 65 64 65 67 69 70 71 70 71 70 71 70 70
56 57 58 60 60 60 61 61 62 63 63 64 64 64 65 65 65 65 65 66 66 66 66 67 68 69 70 71 71 71 71 70 69
52 55 55 57 60 60 61 61 62 63 63 63 64 64 65 65 65 66 66 66 66 66 66 67 67 68 69 70 71 71 71 70 70
51 53 54 56 59 59 60 61 62 62 63 63 64 65 65 65 66 66 66 66 67 66 66 67 67 68 68 69 70 71 71 71 71
50 52 54 54 55 58 59 60 61 62 63 63 64 65 66 66 66 67 67 67 67 67 66 67 68 69 68 69 70 70 71 70 71
39 49 52 54 54 55 58 58 60 61 63 63 64 65 65 66 66 67 67 67 68 68 68 67 67 68 69 69 70 71 71 71 71
22 27 48 53 54 53 55 58 60 62 63 63 64 65 66 66 66 67 67 68 68 68 68 68 68 68 69 69 70 71 71 71 71
40 35 30 49 54 54 55 57 60 62 63 64 64 64 66 66 67 67 68 69 70 70 68 68 68 68 68 69 70 70 71 71 71
57 51 36 37 52 54 55 57 58 62 63 64 64 64 65 66 67 67 68 68 68 70 71 69 69 69 69 69 69 69 69 71 71
59 60 48 33 50 53 55 57 58 60 63 65 65 65 65 66 67 68 68 69 68 68 68 70 70 70 69 69 70 69 68 69 70
57 62 60 48 52 54 55 57 58 60 63 65 65 65 66 67 68 68 69 70 69 69 69 69 70 70 70 69 69 69 68 69 70
57 61 65 54 54 55 57 57 58 60 63 65 66 66 67 67 68 68 69 70 70 70 70 70 69 70 70 71 70 68 68 68 70
57 61 66 62 57 57 57 58 59 61 63 64 66 67 68 69 69 69 69 69 70 71 71 71 70 70 70 70 70 70 68 68 69
52 59 63 66 61 59 59 59 59 61 63 63 65 67 68 69 70 70 70 70 70 70 71 71 71 71 71 71 70 70 68 66 70
48 56 61 64 67 66 61 61 60 61 62 63 64 66 67 68 69 70 70 71 71 71 71 71 71 71 71 72 73 71 69 67 66
53 54 59 61 64 65 66 67 66 65 68 67 64 64 65 67 69 69 70 71 71 71 71 71 70 71 71 71 72 72 70 69 66
53 56 57 60 62 63 64 64 65 66 68 69 68 66 66 66 66 68 69 71 71 70 71 71 70 70 70 71 71 72 73 71 68
47 52 57 59 60 62 63 64 65 67 67 67 68 68 69 69 68 67 67 68 68 70 71 70 70 70 71 71 71 72 73 73 72
44 45 53 57 60 62 63 64 64 66 67 66 65 65 66 66 70 69 70 65 63 56 59 63 65 68 71 69 69 72 71 71 71
44 43 47 56 59 60 61 63 63 64 64 64 63 63 63 65 65 71 69 67 66 65 57 55 58 63 68 70 69 67 65 65 64